GW1572 Weather Reports


time (UTC)temp
C
wind
direction
speed
KPH
gust
KPH
rain 1hr
cm
rain 24hr
cm
rain mn
cm
humidity
%
barometer
mb
20260504183329 22 333 4.8 11.3 0.00 0.00 0.00 56 1002.7
20260504182741 22 24 4.8 9.7 0.00 0.00 0.00 53 1002.7
20260504182142 22 270 3.2 3.2 0.00 0.00 0.00 54 1002.7
20260504181512 22 10 3.2 4.8 0.00 0.00 0.00 53 1002.7
20260504180923 22 286 8.0 12.9 0.00 0.00 0.00 55 1002.7
20260504180320 22 1 9.7 11.3 0.00 0.00 0.00 58 1002.7
20260504175748 22 342 3.2 4.8 0.00 0.00 0.00 55 1002.7
20260504174534 22 315 9.7 12.9 0.00 0.00 0.00 55 1002.3
20260504173931 21 5 8.0 9.7 0.00 0.00 0.00 60 1002.7
20260504172713 22 245 4.8 4.8 0.00 0.00 0.00 58 1002.3
20260504172134 22 356 6.4 6.4 0.00 0.00 0.00 55 1002.7
20260504171554 21 338 3.2 3.2 0.00 0.00 0.00 60 1002.7
20260504170919 21 23 9.7 14.5 0.00 0.00 0.00 55 1003.0
20260504170335 21 321 6.4 6.4 0.00 0.00 0.00 58 1003.0
20260504160347 18 349 6.4 9.7 0.00 0.00 0.00 67 1004.0
20260504141236 15 6 3.2 3.2 0.00 0.00 0.00 72 1005.0
20260504140653 14 343 6.4 9.7 0.00 0.00 0.00 72 1005.0
20260504130633 13 353 3.2 4.8 0.00 0.00 0.00 71 1004.7
20260504110627 7 239 0.0 0.0 0.00 0.00 0.00 92 1004.7
20260504081815 7 250 0.0 0.0 0.00 0.00 0.00 97 1005.4
20260504081216 7 266 0.0 0.0 0.00 0.00 0.00 96 1005.7
20260504080626 7 288 0.0 0.0 0.00 0.00 0.00 96 1005.4
20260504045417 10 265 0.0 0.0 0.00 0.00 0.00 91 1007.1
20260504044831 10 259 0.0 0.0 0.00 0.00 0.00 91 1007.1
20260504044221 10 263 0.0 0.0 0.00 0.00 0.00 89 1007.1
20260504043642 11 268 0.0 0.0 0.00 0.00 0.00 86 1007.1
20260504043048 11 272 0.0 0.0 0.00 0.00 0.00 81 1007.4
20260504042431 11 313 1.6 1.6 0.00 0.00 0.00 76 1007.4
20260504041228 11 8 3.2 3.2 0.00 0.00 0.00 72 1007.4
20260504040644 12 359 4.8 4.8 0.00 0.00 0.00 68 1007.4
20260504040030 12 353 1.6 1.6 0.00 0.00 0.00 62 1007.1
20260504035428 11 18 4.8 6.4 0.00 0.00 0.00 62 1007.1
20260504034215 11 275 0.0 0.0 0.00 0.00 0.00 72 1007.4
20260504033612 11 271 0.0 0.0 0.00 0.00 0.00 72 1007.1
20260504033036 11 279 0.0 0.0 0.00 0.00 0.00 71 1007.1
20260504031244 11 268 0.0 0.0 0.00 0.00 0.00 72 1007.1
20260504030018 11 279 0.0 0.0 0.00 0.00 0.00 71 1007.1
20260504025414 11 290 0.0 0.0 0.00 0.00 0.00 71 1007.1
20260504024824 11 268 0.0 0.0 0.00 0.00 0.00 71 1007.4
20260504024220 11 259 3.2 3.2 0.00 0.00 0.00 69 1007.1
20260504023633 11 280 0.0 0.0 0.00 0.00 0.00 70 1007.1
20260504023027 11 268 0.0 0.0 0.00 0.00 0.00 71 1007.1
20260504022437 11 273 0.0 0.0 0.00 0.00 0.00 70 1007.1
20260504021834 11 266 0.0 0.0 0.00 0.00 0.00 71 1007.1
20260504020620 11 251 0.0 0.0 0.00 0.00 0.00 72 1007.1
20260504020020 11 279 0.0 0.0 0.00 0.00 0.00 70 1006.7
20260504015443 11 268 0.0 0.0 0.00 0.00 0.00 70 1006.7
20260504014826 11 276 0.0 0.0 0.00 0.00 0.00 69 1006.7
20260504014244 11 275 0.0 0.0 0.00 0.00 0.00 69 1006.7
20260504013650 11 286 0.0 0.0 0.00 0.00 0.00 67 1006.7
20260504012412 11 207 0.0 0.0 0.00 0.00 0.00 68 1006.7
20260504011837 11 327 0.0 1.6 0.00 0.00 0.00 66 1007.1
20260504011214 12 268 0.0 0.0 0.00 0.00 0.00 66 1006.7
20260504010635 12 295 0.0 0.0 0.00 0.00 0.00 63 1006.7
20260504010049 12 271 0.0 0.0 0.00 0.00 0.00 62 1007.1
20260504005438 12 272 0.0 0.0 0.00 0.00 0.00 62 1007.1
20260504004247 12 270 0.0 0.0 0.00 0.00 0.00 61 1006.7
20260504003614 12 263 0.0 0.0 0.00 0.00 0.00 59 1006.7
20260504003040 12 261 0.0 0.0 0.00 0.00 0.00 57 1006.7
20260504002436 13 263 0.0 0.0 0.00 0.00 0.00 58 1006.7
20260504001818 13 217 0.0 0.0 0.00 0.00 0.00 57 1006.7
20260504001219 13 280 0.0 0.0 0.00 0.00 0.00 57 1006.7
20260504000654 13 257 0.0 0.0 0.00 0.00 0.00 57 1007.1
20260504000042 14 258 0.0 0.0 0.00 0.00 0.00 56 1006.7
20260503235412 15 266 0.0 0.0 0.00 0.00 0.00 55 1006.7
20260503234815 15 242 0.0 0.0 0.00 0.00 0.00 57 1006.4
20260503234236 15 271 0.0 0.0 0.00 0.00 0.00 55 1006.7
20260503233627 16 278 0.0 0.0 0.00 0.00 0.00 52 1006.7
20260503233035 15 1 1.6 1.6 0.00 0.00 0.00 42 1006.7
20260503232447 16 221 0.0 0.0 0.00 0.00 0.00 43 1006.4
20260503231818 16 280 0.0 0.0 0.00 0.00 0.00 47 1006.7
20260503231252 16 336 0.0 1.6 0.00 0.00 0.00 39 1007.1
20260503230636 16 268 1.6 1.6 0.00 0.00 0.00 37 1007.1
20260503230041 16 300 4.8 4.8 0.00 0.00 0.00 38 1007.4
20260503224223 17 313 6.4 9.7 0.00 0.00 0.00 38 1007.4
20260503223614 17 246 3.2 4.8 0.00 0.00 0.00 39 1007.4
20260503223014 17 266 4.8 6.4 0.00 0.00 0.00 37 1007.4
20260503222422 17 293 1.6 3.2 0.00 0.00 0.00 41 1007.4
20260503221820 17 290 3.2 3.2 0.00 0.00 0.00 35 1007.7
20260503221224 18 354 6.4 6.4 0.00 0.00 0.00 34 1007.4
20260503220654 18 257 4.8 6.4 0.00 0.00 0.00 37 1007.4
20260503220044 18 273 4.8 9.7 0.00 0.00 0.00 36 1007.4
20260503215439 18 302 4.8 4.8 0.00 0.00 0.00 36 1007.4
20260503214810 18 294 3.2 3.2 0.00 0.00 0.00 36 1007.4
20260503214224 18 4 4.8 6.4 0.00 0.00 0.00 39 1007.4
20260503213647 18 310 1.6 3.2 0.00 0.00 0.00 34 1007.4
20260503212440 17 43 3.2 4.8 0.00 0.00 0.00 37 1007.7
20260503211827 17 12 3.2 4.8 0.00 0.00 0.00 35 1007.7
20260503211227 18 300 3.2 4.8 0.00 0.00 0.00 35 1007.4
20260503210647 18 353 3.2 3.2 0.00 0.00 0.00 35 1007.7
20260503210017 18 285 4.8 4.8 0.00 0.00 0.00 36 1007.7
20260503205430 17 282 6.4 9.7 0.00 0.00 0.00 36 1007.7
20260503204242 18 320 3.2 4.8 0.00 0.00 0.00 39 1007.7
20260503203038 18 303 6.4 6.4 0.00 0.00 0.00 39 1008.1
20260503202422 17 13 3.2 4.8 0.00 0.00 0.00 36 1008.1
20260503201816 19 297 3.2 4.8 0.00 0.00 0.00 37 1008.1
20260503201234 17 271 1.6 1.6 0.00 0.00 0.00 38 1008.4
20260503200625 17 287 3.2 4.8 0.00 0.00 0.00 38 1008.4
20260503200026 17 285 3.2 4.8 0.00 0.00 0.00 39 1008.8
20260503195409 17 293 4.8 4.8 0.00 0.00 0.00 37 1008.8
20260503194821 17 277 6.4 6.4 0.00 0.00 0.00 40 1008.8
20260503194241 17 274 4.8 4.8 0.00 0.00 0.00 40 1009.1
20260503193621 17 37 3.2 3.2 0.00 0.00 0.00 35 1009.1
20260503193043 17 344 4.8 4.8 0.00 0.00 0.00 37 1009.1
20260503192436 17 49 6.4 6.4 0.00 0.00 0.00 36 1009.1
20260503191842 17 340 9.7 12.9 0.00 0.00 0.00 37 1009.4
20260503191249 17 12 3.2 4.8 0.00 0.00 0.00 35 1009.4
20260503190636 17 354 4.8 4.8 0.00 0.00 0.00 39 1009.4
20260503190052 16 343 4.8 4.8 0.00 0.00 0.00 36 1009.4
20260503185423 17 6 4.8 6.4 0.00 0.00 0.00 37 1009.8
20260503184846 16 181 4.8 4.8 0.00 0.00 0.00 34 1010.1
20260503184216 16 343 6.4 6.4 0.00 0.00 0.00 38 1010.1